Regional Weather Roundup
Issued by NWS

Home | Current Version | Previous Version | Text Only | Print | Product List | Glossary On
Versions: 1 2 3 4 5 6 7 8 9 10 11 12 13 14 15 16 17 18 19 20 21 22 23 24 25 26 27 28 29 30 31 32 33 34 35 36 37 38 39 40 41 42 43 44 45 46 47 48 49 50
000
ASUS44 KFWD 282115
RWRTX
NORTH TEXAS HOURLY WEATHER ROUNDUP
NATIONAL WEATHER SERVICE FORT WORTH TX
300 PM CST SUN DEC 28 2014

NOTE: "FAIR" INDICATES FEW OR NO CLOUDS BELOW 12,000 FEET WITH NO
SIGNIFICANT WEATHER AND/OR OBSTRUCTIONS TO VISIBILITY.

TXZ118-119-282200-
DALLAS/FORT WORTH METROPLEX

CITY           SKY/WX    TMP DP  RH WIND       PRES   REMARKS
DFW AIRPORT    MOSUNNY   47  21  35 W5        30.15F
DALLAS LOVE    MOSUNNY   47  21  35 W8        30.16F
FTW MEACHAM    SUNNY     48  23  37 CALM      30.15F
DAL-EXECUTIVE  MOSUNNY   49  20  31 CALM      30.16F
FTW-ALLIANCE   MOSUNNY   47  22  37 VRB5      30.15F
FTW-SPINKS     MOSUNNY  N/A N/A N/A CALM      30.17F
ARLINGTON      MOSUNNY   49  19  30 NW5       30.16F
GRAND PRAIRIE  SUNNY     46  23  39 NW5       30.18F
ADDISON        MOSUNNY   46  23  39 W5        30.16F
MESQUITE       SUNNY     43  25  49 CALM      30.18F
LANCASTER      MOSUNNY   44  23  44 CALM      30.19F
$$

TXZ091>094-102>105-117-120-121-131>134-282200-
NORTH CENTRAL TEXAS

CITY           SKY/WX    TMP DP  RH WIND       PRES   REMARKS
SHRMAN/DENISON SUNNY     46  24  42 CALM      30.17F
GAINESVILLE    SUNNY     45  22  39 CALM      30.16F
BOWIE          SUNNY     46  20  35 CALM      30.14S
BRIDGEPORT     SUNNY     51  26  37 CALM      30.16F
DECATUR        SUNNY     46  20  34 CALM      30.14F
DENTON         SUNNY     48  22  35 VRB6      30.15F
MCKINNEY       SUNNY     47  23  38 N7        30.16F
GREENVILLE     MOSUNNY   45  23  42 N5        30.16F
ROCKWALL       SUNNY     46  25  43 NW6       30.16S
TERRELL        MOSUNNY   46  25  43 NW6       30.17F
WAXAHACHIE     MOSUNNY   45  25  45 NW7       30.18F
CLEBURNE       MOSUNNY   48  19  32 CALM      30.17F
GRANBURY       SUNNY     50  23  35 E3        30.17F
$$

TXZ083>090-098>101-113>116-127>130-139>142-154-155-282200-
WESTERN NORTH TEXAS

CITY           SKY/WX    TMP DP  RH WIND       PRES   REMARKS
WICHITA FALLS  SUNNY     46  25  43 S13       30.11F
WF-KICKAPOO    SUNNY     46  23  40 S10G18    30.13F
VERNON         SUNNY     49  20  32 S17       30.09F
ABILENE        SUNNY     51  23  33 S13G21    30.10F
ABILENE-DYESS  SUNNY     52  23  32 SW13      30.09F
BRECKENRIDGE   SUNNY     51  24  34 SW6       30.12F HAZE
GRAHAM         SUNNY     48  28  44 SW7       30.12F
MINERAL WELLS  SUNNY     47  21  35 S3        30.13F
STEPHENVILLE   SUNNY     49  21  32 W3        30.16F
COMANCHE       SUNNY     50  25  36 S3        30.14F
BROWNWOOD      SUNNY     50  23  34 SW5       30.14F
COLEMAN        SUNNY     51  25  36 S7        30.12F
BRADY          SUNNY     52  21  30 SW3       30.12F
$$

TXZ143>147-156>162-174-175-282200-
CENTRAL TEXAS

CITY           SKY/WX    TMP DP  RH WIND       PRES   REMARKS
WACO           CLOUDY    43  26  51 N7        30.20S WCI  39
WACO-TSTC      CLOUDY    45  27  49 NW6       30.20S
WACO-MCGREGOR  CLOUDY    43  25  49 NW8       30.20S WCI  38
HILLSBORO      CLOUDY    44  23  44 N5        30.17F
CORSICANA      CLOUDY    42  25  50 N7        30.20S WCI  38
MEXIA          CLOUDY    40  28  60 NW5       30.18R WCI  37
HEARNE         CLOUDY    40  34  78 NW6       30.22S WCI  36
CAMERON        CLOUDY    42  31  66 N3        30.20F
TEMPLE         CLOUDY    43  25  49 NW10      30.18S WCI  37
KILLEEN        CLOUDY    43  25  49 NW9       30.18F WCI  38
KILLEEN-SKYLRK CLOUDY    45  23  42 W8        30.17S
FORT HOOD      CLOUDY    43  25  49 W9        30.18S WCI  38
GATESVILLE     MOSUNNY   45  23  42 CALM      30.19F
HAMILTON       MOSUNNY   47  19  31 NW3       30.16F
$$

TXZ095>097-106>112-122>126-135>138-148>153-164>167-282200-
EAST TEXAS

CITY           SKY/WX    TMP DP  RH WIND       PRES   REMARKS
PARIS          PTSUNNY   43  27  52 N3        30.17F
SULPHUR SPRNGS CLOUDY    41  29  62 N8        30.19S WCI  36
MOUNT PLEASANT CLOUDY    41  31  68 NW5       30.18S WCI  38
GILMER         CLOUDY    39  33  80 CALM      30.16S
MINEOLA        CLOUDY    41  32  70 NW6       30.17F WCI  37
TYLER          CLOUDY    40  34  79 N3        30.16S
LONGVIEW       CLOUDY    39  35  86 NW5       30.16F WCI  36
MARSHALL       CLOUDY    41  38  91 N5        30.18R WCI  38
ATHENS         CLOUDY    37  30  75 N3        30.17S
PALESTINE      CLOUDY    38  37  95 N3        30.19S
JACKSONVILLE   DRIZZLE   37  37  99 N5        30.16F WCI  34
HENDERSON      DRIZZLE   37  37  99 N3        30.17S
NACOGDOCHES      N/A    N/A N/A N/A MISG        N/A
LUFKIN         LGT RAIN  42  38  85 NW6       30.16R WCI  38
$$

SUPPLEMENTAL OBSERVATIONS (CENTRAL)

CITY           SKY/WX    TMP DP  RH WIND       PRES   REMARKS
LAKE TEXOMA      N/A     45  27  49 NW7         N/A
PAT MAYSE LAKE   N/A     43  27  52 NW5         N/A
GREENVILLE       N/A     45  23  42 N7          N/A
CEDAR HILL       N/A     48  19  32 NW2         N/A
ATHENS           N/A     39  30  70 N3          N/A
PALESTINE        N/A     39  36  87 N3          N/A
MCGREGOR         N/A     43  25  49 N7          N/A  WCI  39
TEMPLE           N/A     43  27  52 NW2         N/A
$$

SUPPLEMENTAL OBSERVATIONS (WEST)

CITY           SKY/WX    TMP DP  RH WIND       PRES   REMARKS
MILLERS CREEK    N/A     48  37  66 S13         N/A
POSSUM KINGDOM   N/A     52  25  35 SE3         N/A
GRANBURY         N/A     50  23  34 NE3         N/A
HAMBY            N/A     52  27  37 S14         N/A
IVIE RESERVOIR   N/A     54  21  28 SW7         N/A
COLORADO BEND    N/A     46  23  39 W2          N/A
$$

SUPPLEMENTAL OBSERVATIONS (EAST)

CITY           SKY/WX    TMP DP  RH WIND       PRES   REMARKS
CLARKSVILLE      N/A     41  30  65 N6          N/A  WCI  37
TEXARKANA        N/A     45  37  76 NE1         N/A
LINDEN           N/A     41  37  87 NW1         N/A
CADDO LAKE       N/A     39  37  93 NW2         N/A
GILMER           N/A     39  32  75 N2          N/A
HENDERSON        N/A     37  32  81 N5G13       N/A  WCI  34
LUFKIN           N/A     39  36  87 MISG        N/A
N SABINE NF      N/A     43  39  87 MISG        N/A
S SABINE NF      N/A     45  41  87 N3          N/A
$$

SUPPLEMENTAL OBSERVATIONS ARE A COLLECTION OF AUTOMATED INSTRUMENTS
THAT ARE MAINTAINED BY A VARIETY OF FEDERAL AND STATE AGENCIES.
CERTAIN ELEMENTS...SUCH AS HUMIDITY VALUES AND SUSTAINED WIND
SPEEDS...MAY BE APPROXIMATED.



USA.gov is the U.S. government's official web portal to all federal, state and local government web resources and services.